| time (UTC) | temp F | wind direction | speed MPH | gust MPH | rain 1hr in | rain 24hr in | rain mn in | humidity % | barometer mb |
| 20260508213302 | 64 | 20 | 1.0 | 1.0 | 0.00 | 0.00 | 0.00 | 58 | 1008.0 |
| 20260508212758 | 64 | 93 | 1.0 | 1.0 | 0.00 | 0.00 | 0.00 | 59 | 1008.0 |
| 20260508212254 | 64 | 101 | 3.0 | 3.0 | 0.00 | 0.00 | 0.00 | 59 | 1007.9 |
| 20260508211750 | 63 | 47 | 1.0 | 1.0 | 0.00 | 0.00 | 0.00 | 60 | 1007.9 |
| 20260508211246 | 63 | 103 | 2.0 | 3.0 | 0.00 | 0.00 | 0.00 | 57 | 1008.1 |
| 20260508210744 | 63 | 83 | 3.0 | 4.0 | 0.00 | 0.00 | 0.00 | 56 | 1008.1 |
| 20260508210241 | 63 | 101 | 5.0 | 7.0 | 0.00 | 0.00 | 0.00 | 55 | 1008.0 |
| 20260508205738 | 63 | 85 | 5.0 | 8.0 | 0.00 | 0.00 | 0.00 | 55 | 1008.2 |
| 20260508205234 | 63 | 80 | 2.0 | 2.0 | 0.00 | 0.00 | 0.00 | 56 | 1008.0 |
| 20260508204730 | 63 | 90 | 5.0 | 7.0 | 0.00 | 0.00 | 0.00 | 55 | 1008.2 |
| 20260508204227 | 64 | 32 | 2.0 | 3.0 | 0.00 | 0.00 | 0.00 | 54 | 1008.2 |
| 20260508203723 | 63 | 108 | 1.0 | 2.0 | 0.00 | 0.00 | 0.00 | 55 | 1008.2 |
| 20260508203219 | 64 | 143 | 3.0 | 3.0 | 0.00 | 0.00 | 0.00 | 55 | 1008.4 |
| 20260508202715 | 64 | 64 | 3.0 | 7.0 | 0.00 | 0.00 | 0.00 | 55 | 1008.4 |
| 20260508202213 | 64 | 111 | 3.0 | 3.0 | 0.00 | 0.00 | 0.00 | 54 | 1008.5 |
| 20260508201709 | 64 | 97 | 3.0 | 4.0 | 0.00 | 0.00 | 0.00 | 54 | 1008.4 |
| 20260508201206 | 64 | 143 | 1.0 | 2.0 | 0.00 | 0.00 | 0.00 | 54 | 1008.6 |
| 20260508200703 | 64 | 51 | 2.0 | 4.0 | 0.00 | 0.00 | 0.00 | 54 | 1008.6 |
| 20260508200159 | 64 | 122 | 6.0 | 8.0 | 0.00 | 0.00 | 0.00 | 52 | 1008.7 |
| 20260508195656 | 65 | 93 | 1.0 | 1.0 | 0.00 | 0.00 | 0.00 | 53 | 1008.8 |
| 20260508195152 | 65 | 193 | 1.0 | 1.0 | 0.00 | 0.00 | 0.00 | 46 | 1009.0 |
| 20260508194649 | 66 | 63 | 0.0 | 1.0 | 0.00 | 0.00 | 0.00 | 46 | 1008.9 |
| 20260508194146 | 65 | 220 | 1.0 | 1.0 | 0.00 | 0.00 | 0.00 | 45 | 1008.9 |
| 20260508193643 | 66 | 35 | 1.0 | 1.0 | 0.00 | 0.00 | 0.00 | 46 | 1009.1 |
| 20260508193139 | 66 | 344 | 1.0 | 1.0 | 0.00 | 0.00 | 0.00 | 46 | 1009.1 |
| 20260508192636 | 65 | 94 | 1.0 | 1.0 | 0.00 | 0.00 | 0.00 | 48 | 1009.2 |
| 20260508192134 | 65 | 162 | 0.0 | 1.0 | 0.00 | 0.00 | 0.00 | 49 | 1009.1 |
| 20260508191630 | 66 | 242 | 0.0 | 1.0 | 0.00 | 0.00 | 0.00 | 47 | 1009.1 |
| 20260508191127 | 66 | 230 | 1.0 | 2.0 | 0.00 | 0.00 | 0.00 | 47 | 1009.3 |
| 20260508190625 | 66 | 165 | 4.0 | 4.0 | 0.00 | 0.00 | 0.00 | 47 | 1009.4 |
| 20260508190121 | 66 | 2 | 0.0 | 1.0 | 0.00 | 0.00 | 0.00 | 46 | 1009.5 |
| 20260508185618 | 68 | 140 | 4.0 | 7.0 | 0.00 | 0.00 | 0.00 | 43 | 1009.6 |
| 20260508185115 | 68 | 171 | 2.0 | 2.0 | 0.00 | 0.00 | 0.00 | 44 | 1009.5 |
| 20260508184612 | 67 | 245 | 2.0 | 3.0 | 0.00 | 0.00 | 0.00 | 42 | 1009.6 |
| 20260508184109 | 66 | 171 | 1.0 | 2.0 | 0.00 | 0.00 | 0.00 | 42 | 1009.7 |
| 20260508183606 | 66 | 151 | 1.0 | 1.0 | 0.00 | 0.00 | 0.00 | 43 | 1009.8 |
| 20260508183102 | 66 | 52 | 0.0 | 0.0 | 0.00 | 0.00 | 0.00 | 44 | 1009.8 |
| 20260508182558 | 66 | 191 | 4.0 | 6.0 | 0.00 | 0.00 | 0.00 | 44 | 1009.9 |
| 20260508182055 | 66 | 137 | 2.0 | 2.0 | 0.00 | 0.00 | 0.00 | 44 | 1009.9 |
| 20260508181549 | 66 | 77 | 2.0 | 2.0 | 0.00 | 0.00 | 0.00 | 45 | 1010.0 |
| 20260508181047 | 66 | 323 | 0.0 | 0.0 | 0.00 | 0.00 | 0.00 | 47 | 1010.0 |
| 20260508180544 | 66 | 349 | 1.0 | 1.0 | 0.00 | 0.00 | 0.00 | 45 | 1010.0 |
| 20260508180040 | 66 | 141 | 0.0 | 0.0 | 0.00 | 0.00 | 0.00 | 47 | 1010.2 |
| 20260508175537 | 64 | 44 | 3.0 | 4.0 | 0.00 | 0.00 | 0.00 | 50 | 1010.4 |
| 20260508175034 | 65 | 157 | 1.0 | 1.0 | 0.00 | 0.00 | 0.00 | 43 | 1010.3 |
| 20260508174532 | 65 | 167 | 2.0 | 2.0 | 0.00 | 0.00 | 0.00 | 43 | 1010.3 |
| 20260508174028 | 65 | 60 | 1.0 | 1.0 | 0.00 | 0.00 | 0.00 | 48 | 1010.4 |
| 20260508173525 | 64 | 104 | 1.0 | 1.0 | 0.00 | 0.00 | 0.00 | 48 | 1010.5 |
| 20260508173021 | 64 | 82 | 4.0 | 4.0 | 0.00 | 0.00 | 0.00 | 46 | 1010.9 |
| 20260508172519 | 65 | 275 | 1.0 | 2.0 | 0.00 | 0.00 | 0.00 | 42 | 1010.8 |
| 20260508172015 | 65 | 181 | 2.0 | 2.0 | 0.00 | 0.00 | 0.00 | 43 | 1011.0 |
| 20260508171512 | 65 | 168 | 2.0 | 2.0 | 0.00 | 0.00 | 0.00 | 42 | 1011.0 |
| 20260508171008 | 65 | 218 | 3.0 | 6.0 | 0.00 | 0.00 | 0.00 | 44 | 1011.2 |
| 20260508170506 | 65 | 129 | 2.0 | 3.0 | 0.00 | 0.00 | 0.00 | 41 | 1011.2 |
| 20260508170002 | 65 | 84 | 2.0 | 2.0 | 0.00 | 0.00 | 0.00 | 41 | 1011.4 |
| 20260508165500 | 64 | 142 | 1.0 | 1.0 | 0.00 | 0.00 | 0.00 | 39 | 1011.5 |
| 20260508164956 | 63 | 190 | 3.0 | 4.0 | 0.00 | 0.00 | 0.00 | 39 | 1011.6 |
| 20260508164453 | 64 | 205 | 2.0 | 3.0 | 0.00 | 0.00 | 0.00 | 39 | 1011.4 |
| 20260508163950 | 63 | 163 | 2.0 | 3.0 | 0.00 | 0.00 | 0.00 | 39 | 1011.6 |
| 20260508163448 | 62 | 203 | 2.0 | 2.0 | 0.00 | 0.00 | 0.00 | 41 | 1011.7 |
| 20260508162943 | 62 | 182 | 3.0 | 3.0 | 0.00 | 0.00 | 0.00 | 37 | 1012.0 |
| 20260508162441 | 63 | 99 | 2.0 | 3.0 | 0.00 | 0.00 | 0.00 | 40 | 1011.8 |
| 20260508161938 | 64 | 197 | 1.0 | 1.0 | 0.00 | 0.00 | 0.00 | 39 | 1011.9 |
| 20260508161435 | 64 | 162 | 2.0 | 3.0 | 0.00 | 0.00 | 0.00 | 41 | 1012.0 |
| 20260508160932 | 62 | 166 | 1.0 | 2.0 | 0.00 | 0.00 | 0.00 | 42 | 1012.0 |
| 20260508160431 | 64 | 331 | 0.0 | 1.0 | 0.00 | 0.00 | 0.00 | 43 | 1011.8 |
| 20260508155926 | 64 | 98 | 2.0 | 3.0 | 0.00 | 0.00 | 0.00 | 41 | 1011.9 |
| 20260508155424 | 62 | 176 | 1.0 | 1.0 | 0.00 | 0.00 | 0.00 | 39 | 1012.2 |
| 20260508154921 | 62 | 58 | 5.0 | 6.0 | 0.00 | 0.00 | 0.00 | 38 | 1012.2 |
| 20260508154418 | 62 | 121 | 2.0 | 2.0 | 0.00 | 0.00 | 0.00 | 42 | 1012.2 |
| 20260508153915 | 62 | 109 | 2.0 | 3.0 | 0.00 | 0.00 | 0.00 | 45 | 1012.2 |
| 20260508153412 | 61 | 83 | 1.0 | 2.0 | 0.00 | 0.00 | 0.00 | 46 | 1012.3 |
| 20260508152908 | 61 | 48 | 1.0 | 2.0 | 0.00 | 0.00 | 0.00 | 46 | 1012.4 |
| 20260508152405 | 62 | 167 | 1.0 | 2.0 | 0.00 | 0.00 | 0.00 | 46 | 1012.3 |
| 20260508151901 | 60 | 187 | 1.0 | 2.0 | 0.00 | 0.00 | 0.00 | 49 | 1012.4 |
| 20260508151358 | 60 | 169 | 4.0 | 6.0 | 0.00 | 0.00 | 0.00 | 48 | 1012.6 |
| 20260508150854 | 60 | 59 | 1.0 | 1.0 | 0.00 | 0.00 | 0.00 | 52 | 1012.4 |
| 20260508150351 | 60 | 74 | 3.0 | 4.0 | 0.00 | 0.00 | 0.00 | 52 | 1012.4 |
| 20260508145847 | 60 | 16 | 0.0 | 0.0 | 0.00 | 0.00 | 0.00 | 54 | 1012.7 |
| 20260508145343 | 60 | 148 | 2.0 | 3.0 | 0.00 | 0.00 | 0.00 | 58 | 1012.5 |
| 20260508144840 | 59 | 219 | 3.0 | 6.0 | 0.00 | 0.00 | 0.00 | 59 | 1012.6 |
| 20260508144338 | 59 | 81 | 2.0 | 3.0 | 0.00 | 0.00 | 0.00 | 61 | 1012.6 |
| 20260508143836 | 58 | 125 | 1.0 | 2.0 | 0.00 | 0.00 | 0.00 | 64 | 1012.7 |
| 20260508143332 | 57 | 162 | 2.0 | 2.0 | 0.00 | 0.00 | 0.00 | 65 | 1012.7 |
| 20260508142829 | 58 | 179 | 1.0 | 2.0 | 0.00 | 0.00 | 0.00 | 66 | 1012.7 |
| 20260508142326 | 58 | 125 | 1.0 | 2.0 | 0.00 | 0.00 | 0.00 | 69 | 1012.8 |
| 20260508141823 | 56 | 63 | 0.0 | 0.0 | 0.00 | 0.00 | 0.00 | 72 | 1012.8 |
| 20260508141320 | 55 | 66 | 0.0 | 0.0 | 0.00 | 0.00 | 0.00 | 74 | 1012.7 |
| 20260508140817 | 55 | 60 | 2.0 | 2.0 | 0.00 | 0.00 | 0.00 | 73 | 1012.7 |
| 20260508140314 | 55 | 14 | 0.0 | 0.0 | 0.00 | 0.00 | 0.00 | 75 | 1012.9 |
| 20260508135810 | 54 | 48 | 0.0 | 1.0 | 0.00 | 0.00 | 0.00 | 78 | 1012.8 |
| 20260508135306 | 53 | 23 | 0.0 | 0.0 | 0.00 | 0.00 | 0.00 | 78 | 1012.5 |
| 20260508134801 | 52 | 78 | 1.0 | 1.0 | 0.00 | 0.00 | 0.00 | 80 | 1012.8 |
| 20260508134259 | 52 | 43 | 2.0 | 2.0 | 0.00 | 0.00 | 0.00 | 80 | 1012.9 |
| 20260508133756 | 52 | 67 | 2.0 | 2.0 | 0.00 | 0.00 | 0.00 | 80 | 1012.6 |
| 20260508133253 | 52 | 44 | 1.0 | 1.0 | 0.00 | 0.00 | 0.00 | 81 | 1012.7 |
| 20260508132751 | 51 | 76 | 2.0 | 3.0 | 0.00 | 0.00 | 0.00 | 82 | 1012.7 |
| 20260508132248 | 51 | 52 | 1.0 | 2.0 | 0.00 | 0.00 | 0.00 | 82 | 1012.7 |
| 20260508131744 | 50 | 56 | 0.0 | 0.0 | 0.00 | 0.00 | 0.00 | 85 | 1012.6 |
| 20260508131240 | 50 | 65 | 0.0 | 0.0 | 0.00 | 0.00 | 0.00 | 85 | 1012.8 |
| 20260508130737 | 51 | 30 | 0.0 | 1.0 | 0.00 | 0.00 | 0.00 | 84 | 1012.7 |
| 20260508130234 | 50 | 30 | 0.0 | 0.0 | 0.00 | 0.00 | 0.00 | 86 | 1012.6 |
| 20260508125730 | 49 | 299 | 0.0 | 0.0 | 0.00 | 0.00 | 0.00 | 87 | 1012.8 |
| 20260508125226 | 48 | 176 | 3.0 | 3.0 | 0.00 | 0.00 | 0.00 | 88 | 1012.9 |
| 20260508124725 | 48 | 186 | 2.0 | 2.0 | 0.00 | 0.00 | 0.00 | 89 | 1012.9 |
| 20260508124222 | 48 | 50 | 0.0 | 0.0 | 0.00 | 0.00 | 0.00 | 89 | 1012.8 |
| 20260508123720 | 48 | 32 | 0.0 | 0.0 | 0.00 | 0.00 | 0.00 | 89 | 1012.9 |
| 20260508123218 | 47 | 35 | 0.0 | 0.0 | 0.00 | 0.00 | 0.00 | 91 | 1013.0 |
| 20260508122713 | 46 | 42 | 0.0 | 0.0 | 0.00 | 0.00 | 0.00 | 93 | 1012.9 |
| 20260508122210 | 46 | 1 | 0.0 | 0.0 | 0.00 | 0.00 | 0.00 | 95 | 1012.9 |
| 20260508121708 | 45 | 15 | 0.0 | 0.0 | 0.00 | 0.00 | 0.00 | 96 | 1012.9 |
| 20260508121206 | 45 | 26 | 0.0 | 0.0 | 0.00 | 0.00 | 0.00 | 96 | 1013.0 |
| 20260508120703 | 44 | 166 | 0.0 | 0.0 | 0.00 | 0.00 | 0.00 | 97 | 1013.0 |
| 20260508120201 | 44 | 166 | 0.0 | 0.0 | 0.00 | 0.00 | 0.00 | 97 | 1013.0 |
| 20260508115659 | 44 | 166 | 0.0 | 0.0 | 0.00 | 0.00 | 0.00 | 97 | 1012.9 |
| 20260508115155 | 44 | 303 | 0.0 | 0.0 | 0.00 | 0.00 | 0.00 | 98 | 1012.8 |
| 20260508114652 | 44 | 30 | 0.0 | 0.0 | 0.00 | 0.00 | 0.00 | 98 | 1012.8 |
| 20260508114149 | 43 | 8 | 0.0 | 0.0 | 0.00 | 0.00 | 0.00 | 98 | 1012.8 |
| 20260508113646 | 43 | 352 | 0.0 | 0.0 | 0.00 | 0.00 | 0.00 | 98 | 1012.7 |
| 20260508113144 | 43 | 352 | 0.0 | 0.0 | 0.00 | 0.00 | 0.00 | 98 | 1012.7 |
| 20260508112640 | 43 | 352 | 0.0 | 0.0 | 0.00 | 0.00 | 0.00 | 98 | 1012.7 |
| 20260508112137 | 42 | 352 | 0.0 | 0.0 | 0.00 | 0.00 | 0.00 | 98 | 1012.5 |
| 20260508111633 | 42 | 6 | 0.0 | 0.0 | 0.00 | 0.00 | 0.00 | 98 | 1012.6 |
| 20260508111131 | 41 | 6 | 0.0 | 0.0 | 0.00 | 0.00 | 0.00 | 98 | 1012.6 |
| 20260508110629 | 41 | 6 | 0.0 | 0.0 | 0.00 | 0.00 | 0.00 | 98 | 1012.4 |
| 20260508110125 | 41 | 165 | 0.0 | 0.0 | 0.00 | 0.00 | 0.00 | 98 | 1012.7 |
| 20260508105625 | 41 | 18 | 0.0 | 0.0 | 0.00 | 0.00 | 0.00 | 98 | 1012.4 |
| 20260508105123 | 40 | 7 | 0.0 | 0.0 | 0.00 | 0.00 | 0.00 | 98 | 1012.4 |
| 20260508104620 | 40 | 350 | 0.0 | 0.0 | 0.00 | 0.00 | 0.00 | 98 | 1012.3 |
| 20260508104117 | 40 | 22 | 0.0 | 0.0 | 0.00 | 0.00 | 0.00 | 98 | 1012.4 |
| 20260508103614 | 40 | 170 | 0.0 | 0.0 | 0.00 | 0.00 | 0.00 | 98 | 1012.6 |
| 20260508103111 | 40 | 170 | 0.0 | 0.0 | 0.00 | 0.00 | 0.00 | 98 | 1012.5 |
| 20260508102609 | 40 | 171 | 0.0 | 0.0 | 0.00 | 0.00 | 0.00 | 98 | 1012.3 |
| 20260508102106 | 40 | 171 | 0.0 | 0.0 | 0.00 | 0.00 | 0.00 | 98 | 1012.4 |
| 20260508101603 | 40 | 173 | 0.0 | 0.0 | 0.00 | 0.00 | 0.00 | 98 | 1012.4 |
| 20260508101101 | 39 | 350 | 0.0 | 0.0 | 0.00 | 0.00 | 0.00 | 98 | 1012.2 |
| 20260508100558 | 40 | 350 | 0.0 | 0.0 | 0.00 | 0.00 | 0.00 | 98 | 1012.3 |
| 20260508100055 | 40 | 349 | 0.0 | 0.0 | 0.00 | 0.00 | 0.00 | 98 | 1012.4 |
| 20260508095552 | 40 | 358 | 0.0 | 0.0 | 0.00 | 0.00 | 0.00 | 98 | 1012.6 |
| 20260508095049 | 39 | 6 | 0.0 | 1.0 | 0.00 | 0.00 | 0.00 | 97 | 1012.6 |
| 20260508094546 | 39 | 171 | 0.0 | 0.0 | 0.00 | 0.00 | 0.00 | 97 | 1012.6 |
| 20260508094043 | 40 | 174 | 0.0 | 0.0 | 0.00 | 0.00 | 0.00 | 97 | 1012.9 |
| 20260508093540 | 40 | 174 | 0.0 | 0.0 | 0.00 | 0.00 | 0.00 | 97 | 1012.6 |
| 20260508093038 | 40 | 192 | 0.0 | 0.0 | 0.00 | 0.00 | 0.00 | 97 | 1012.6 |
| 20260508092535 | 40 | 192 | 0.0 | 0.0 | 0.00 | 0.00 | 0.00 | 97 | 1012.6 |
| 20260508092034 | 40 | 192 | 0.0 | 0.0 | 0.00 | 0.00 | 0.00 | 97 | 1012.7 |
| 20260508091530 | 40 | 192 | 0.0 | 0.0 | 0.00 | 0.00 | 0.00 | 97 | 1012.7 |
| 20260508091027 | 40 | 192 | 0.0 | 0.0 | 0.00 | 0.00 | 0.00 | 97 | 1012.8 |
| 20260508090525 | 40 | 192 | 0.0 | 0.0 | 0.00 | 0.00 | 0.00 | 97 | 1012.7 |
| 20260508090022 | 40 | 192 | 0.0 | 0.0 | 0.00 | 0.00 | 0.00 | 97 | 1012.8 |
| 20260508085518 | 40 | 197 | 1.0 | 1.0 | 0.00 | 0.00 | 0.00 | 97 | 1012.7 |
| 20260508085015 | 41 | 355 | 0.0 | 0.0 | 0.00 | 0.00 | 0.00 | 97 | 1012.6 |
| 20260508084512 | 41 | 355 | 0.0 | 0.0 | 0.00 | 0.00 | 0.00 | 97 | 1012.6 |
| 20260508084010 | 41 | 14 | 0.0 | 0.0 | 0.00 | 0.00 | 0.00 | 96 | 1012.8 |
| 20260508083506 | 41 | 52 | 0.0 | 0.0 | 0.00 | 0.00 | 0.00 | 96 | 1012.9 |
| 20260508083003 | 41 | 9 | 0.0 | 0.0 | 0.00 | 0.00 | 0.00 | 96 | 1012.9 |
| 20260508082459 | 41 | 12 | 0.0 | 0.0 | 0.00 | 0.00 | 0.00 | 96 | 1012.8 |
| 20260508081957 | 41 | 13 | 0.0 | 0.0 | 0.00 | 0.00 | 0.00 | 96 | 1012.9 |
| 20260508081454 | 41 | 14 | 0.0 | 0.0 | 0.00 | 0.00 | 0.00 | 96 | 1012.9 |
| 20260508080949 | 41 | 14 | 0.0 | 0.0 | 0.00 | 0.00 | 0.00 | 96 | 1012.9 |
| 20260508080448 | 41 | 14 | 0.0 | 0.0 | 0.00 | 0.00 | 0.00 | 95 | 1013.0 |
| 20260508075944 | 42 | 14 | 0.0 | 0.0 | 0.00 | 0.00 | 0.00 | 95 | 1012.9 |
| 20260508075441 | 42 | 14 | 0.0 | 0.0 | 0.00 | 0.00 | 0.00 | 95 | 1013.1 |
| 20260508074939 | 42 | 357 | 0.0 | 0.0 | 0.00 | 0.00 | 0.00 | 95 | 1013.0 |
| 20260508074437 | 42 | 352 | 0.0 | 0.0 | 0.00 | 0.00 | 0.00 | 95 | 1013.0 |
| 20260508073933 | 42 | 352 | 0.0 | 0.0 | 0.00 | 0.00 | 0.00 | 95 | 1013.2 |
| 20260508073431 | 43 | 1 | 0.0 | 0.0 | 0.00 | 0.00 | 0.00 | 95 | 1013.2 |
| 20260508072928 | 43 | 352 | 0.0 | 0.0 | 0.00 | 0.00 | 0.00 | 95 | 1013.1 |
| 20260508072424 | 43 | 338 | 1.0 | 1.0 | 0.00 | 0.00 | 0.00 | 95 | 1013.1 |
| 20260508071921 | 43 | 349 | 0.0 | 0.0 | 0.00 | 0.00 | 0.00 | 94 | 1013.2 |
| 20260508071419 | 43 | 346 | 0.0 | 0.0 | 0.00 | 0.00 | 0.00 | 94 | 1013.1 |
| 20260508070911 | 44 | 1 | 0.0 | 0.0 | 0.00 | 0.00 | 0.00 | 94 | 1013.1 |
| 20260508070409 | 44 | 347 | 0.0 | 0.0 | 0.00 | 0.00 | 0.00 | 94 | 1013.2 |
| 20260508065906 | 44 | 1 | 0.0 | 0.0 | 0.00 | 0.00 | 0.00 | 94 | 1013.2 |
| 20260508065404 | 44 | 3 | 0.0 | 0.0 | 0.00 | 0.00 | 0.00 | 93 | 1013.0 |
| 20260508064902 | 44 | 347 | 0.0 | 0.0 | 0.00 | 0.00 | 0.00 | 93 | 1013.1 |
| 20260508064359 | 44 | 349 | 0.0 | 0.0 | 0.00 | 0.00 | 0.00 | 93 | 1013.1 |
| 20260508063857 | 44 | 3 | 0.0 | 0.0 | 0.00 | 0.00 | 0.00 | 93 | 1013.1 |
| 20260508063355 | 44 | 13 | 0.0 | 0.0 | 0.00 | 0.00 | 0.00 | 92 | 1013.1 |
| 20260508062852 | 44 | 167 | 1.0 | 1.0 | 0.00 | 0.00 | 0.00 | 92 | 1013.2 |
| 20260508062349 | 44 | 346 | 0.0 | 0.0 | 0.00 | 0.00 | 0.00 | 92 | 1013.3 |
| 20260508061846 | 44 | 347 | 0.0 | 0.0 | 0.00 | 0.00 | 0.00 | 92 | 1013.1 |
| 20260508061343 | 44 | 351 | 1.0 | 1.0 | 0.00 | 0.00 | 0.00 | 91 | 1013.1 |
| 20260508060840 | 44 | 3 | 0.0 | 0.0 | 0.00 | 0.00 | 0.00 | 91 | 1013.2 |
| 20260508060338 | 45 | 159 | 0.0 | 0.0 | 0.00 | 0.00 | 0.00 | 91 | 1012.9 |
| 20260508055837 | 45 | 345 | 0.0 | 0.0 | 0.00 | 0.00 | 0.00 | 91 | 1013.0 |
| 20260508055336 | 45 | 346 | 0.0 | 0.0 | 0.00 | 0.00 | 0.00 | 91 | 1012.9 |
| 20260508054832 | 45 | 349 | 0.0 | 0.0 | 0.00 | 0.00 | 0.00 | 90 | 1012.8 |
| 20260508054330 | 45 | 345 | 0.0 | 0.0 | 0.00 | 0.00 | 0.00 | 90 | 1012.8 |
| 20260508053826 | 45 | 326 | 0.0 | 0.0 | 0.00 | 0.00 | 0.00 | 90 | 1013.0 |
| 20260508053324 | 45 | 267 | 0.0 | 0.0 | 0.00 | 0.00 | 0.00 | 91 | 1012.8 |
| 20260508052821 | 45 | 355 | 0.0 | 0.0 | 0.00 | 0.00 | 0.00 | 90 | 1012.9 |
| 20260508052318 | 45 | 352 | 0.0 | 0.0 | 0.00 | 0.00 | 0.00 | 90 | 1012.9 |
| 20260508051814 | 46 | 191 | 0.0 | 0.0 | 0.00 | 0.00 | 0.00 | 89 | 1012.9 |
| 20260508051309 | 46 | 171 | 0.0 | 0.0 | 0.00 | 0.00 | 0.00 | 89 | 1013.0 |
| 20260508050806 | 46 | 355 | 0.0 | 0.0 | 0.00 | 0.00 | 0.00 | 90 | 1012.9 |
| 20260508050303 | 46 | 356 | 0.0 | 0.0 | 0.00 | 0.00 | 0.00 | 90 | 1012.7 |
| 20260508045759 | 46 | 356 | 0.0 | 0.0 | 0.00 | 0.02 | 0.02 | 90 | 1012.6 |
| 20260508045257 | 46 | 6 | 0.0 | 0.0 | 0.00 | 0.02 | 0.02 | 89 | 1012.7 |
| 20260508044754 | 46 | 25 | 0.0 | 0.0 | 0.00 | 0.02 | 0.02 | 89 | 1012.8 |
| 20260508044251 | 47 | 137 | 0.0 | 0.0 | 0.00 | 0.02 | 0.02 | 89 | 1012.8 |
| 20260508043747 | 47 | 169 | 0.0 | 1.0 | 0.00 | 0.02 | 0.02 | 88 | 1012.7 |
| 20260508043244 | 47 | 344 | 0.0 | 0.0 | 0.00 | 0.02 | 0.02 | 88 | 1012.6 |
| 20260508042741 | 47 | 344 | 0.0 | 0.0 | 0.00 | 0.02 | 0.02 | 88 | 1012.5 |
| 20260508042239 | 48 | 330 | 0.0 | 0.0 | 0.00 | 0.02 | 0.02 | 88 | 1012.6 |
| 20260508041735 | 48 | 347 | 0.0 | 0.0 | 0.00 | 0.02 | 0.02 | 87 | 1012.5 |
| 20260508041232 | 48 | 337 | 0.0 | 1.0 | 0.00 | 0.02 | 0.02 | 88 | 1012.4 |
| 20260508040728 | 48 | 346 | 0.0 | 0.0 | 0.00 | 0.02 | 0.02 | 88 | 1012.3 |
| 20260508040225 | 48 | 170 | 0.0 | 0.0 | 0.00 | 0.02 | 0.02 | 88 | 1012.2 |
| 20260508035723 | 48 | 161 | 0.0 | 0.0 | 0.00 | 0.02 | 0.02 | 88 | 1012.4 |
| 20260508035220 | 48 | 353 | 0.0 | 0.0 | 0.00 | 0.02 | 0.02 | 87 | 1012.3 |
| 20260508034716 | 48 | 333 | 0.0 | 0.0 | 0.00 | 0.02 | 0.02 | 87 | 1012.3 |
| 20260508034214 | 48 | 232 | 0.0 | 0.0 | 0.00 | 0.02 | 0.02 | 87 | 1012.2 |
| 20260508033711 | 49 | 147 | 0.0 | 0.0 | 0.00 | 0.02 | 0.02 | 86 | 1012.1 |
| 20260508033209 | 49 | 154 | 0.0 | 0.0 | 0.00 | 0.02 | 0.02 | 86 | 1012.2 |
| 20260508032706 | 49 | 158 | 0.0 | 0.0 | 0.00 | 0.02 | 0.02 | 87 | 1012.3 |
| 20260508032203 | 49 | 80 | 0.0 | 0.0 | 0.00 | 0.02 | 0.02 | 86 | 1012.3 |
| 20260508031700 | 50 | 143 | 0.0 | 0.0 | 0.00 | 0.02 | 0.02 | 86 | 1012.3 |
| 20260508031156 | 49 | 172 | 1.0 | 1.0 | 0.00 | 0.02 | 0.02 | 87 | 1012.4 |
| 20260508030653 | 49 | 163 | 0.0 | 1.0 | 0.00 | 0.02 | 0.02 | 87 | 1012.2 |
| 20260508030151 | 49 | 148 | 0.0 | 0.0 | 0.00 | 0.02 | 0.02 | 87 | 1012.3 |
| 20260508025647 | 49 | 80 | 0.0 | 0.0 | 0.00 | 0.02 | 0.02 | 86 | 1012.3 |
| 20260508025144 | 49 | 66 | 0.0 | 0.0 | 0.00 | 0.02 | 0.02 | 84 | 1012.2 |
| 20260508024639 | 49 | 163 | 0.0 | 0.0 | 0.00 | 0.02 | 0.02 | 83 | 1012.0 |
| 20260508024137 | 50 | 163 | 0.0 | 0.0 | 0.00 | 0.02 | 0.02 | 82 | 1012.1 |
| 20260508023633 | 50 | 163 | 0.0 | 0.0 | 0.00 | 0.02 | 0.02 | 81 | 1012.0 |
| 20260508023131 | 51 | 169 | 0.0 | 0.0 | 0.00 | 0.02 | 0.02 | 81 | 1012.1 |
| 20260508022626 | 52 | 179 | 0.0 | 0.0 | 0.00 | 0.02 | 0.02 | 80 | 1012.0 |
| 20260508022124 | 52 | 178 | 0.0 | 1.0 | 0.00 | 0.02 | 0.02 | 79 | 1012.0 |
| 20260508021619 | 52 | 183 | 1.0 | 1.0 | 0.00 | 0.02 | 0.02 | 78 | 1012.0 |
| 20260508021115 | 52 | 158 | 0.0 | 0.0 | 0.00 | 0.02 | 0.02 | 78 | 1011.8 |
| 20260508020614 | 52 | 124 | 0.0 | 0.0 | 0.00 | 0.02 | 0.02 | 77 | 1011.8 |
| 20260508020111 | 51 | 168 | 1.0 | 1.0 | 0.00 | 0.02 | 0.02 | 78 | 1011.9 |
| 20260508015608 | 50 | 153 | 0.0 | 0.0 | 0.00 | 0.02 | 0.02 | 78 | 1011.8 |
| 20260508015105 | 50 | 41 | 0.0 | 0.0 | 0.00 | 0.02 | 0.02 | 77 | 1011.7 |
| 20260508014601 | 51 | 153 | 0.0 | 0.0 | 0.00 | 0.02 | 0.02 | 76 | 1011.7 |
| 20260508014058 | 51 | 136 | 0.0 | 0.0 | 0.00 | 0.02 | 0.02 | 76 | 1011.5 |
| 20260508013554 | 51 | 136 | 0.0 | 0.0 | 0.00 | 0.02 | 0.02 | 75 | 1011.4 |
| 20260508013051 | 51 | 26 | 0.0 | 0.0 | 0.00 | 0.02 | 0.02 | 74 | 1011.3 |
| 20260508012548 | 51 | 41 | 0.0 | 0.0 | 0.00 | 0.02 | 0.02 | 74 | 1011.5 |
| 20260508012045 | 51 | 170 | 0.0 | 0.0 | 0.00 | 0.02 | 0.02 | 72 | 1011.3 |
| 20260508011544 | 52 | 155 | 0.0 | 0.0 | 0.00 | 0.02 | 0.02 | 71 | 1011.2 |
| 20260508011041 | 52 | 155 | 0.0 | 0.0 | 0.00 | 0.02 | 0.02 | 69 | 1011.0 |
| 20260508010537 | 53 | 184 | 0.0 | 0.0 | 0.00 | 0.02 | 0.02 | 67 | 1011.0 |
| 20260508010035 | 54 | 184 | 0.0 | 0.0 | 0.00 | 0.02 | 0.02 | 65 | 1011.2 |
| 20260508005531 | 55 | 161 | 0.0 | 0.0 | 0.00 | 0.02 | 0.02 | 63 | 1011.0 |
| 20260508005028 | 55 | 170 | 0.0 | 0.0 | 0.00 | 0.02 | 0.02 | 61 | 1011.2 |
| 20260508004524 | 56 | 170 | 0.0 | 0.0 | 0.00 | 0.02 | 0.02 | 60 | 1010.9 |
| 20260508004021 | 56 | 215 | 0.0 | 1.0 | 0.00 | 0.02 | 0.02 | 59 | 1011.2 |
| 20260508003517 | 56 | 186 | 0.0 | 0.0 | 0.00 | 0.02 | 0.02 | 59 | 1011.2 |
| 20260508003015 | 57 | 189 | 1.0 | 1.0 | 0.00 | 0.02 | 0.02 | 58 | 1011.0 |
| 20260508002511 | 57 | 153 | 1.0 | 2.0 | 0.00 | 0.02 | 0.02 | 58 | 1010.9 |
| 20260508002008 | 57 | 186 | 1.0 | 2.0 | 0.00 | 0.02 | 0.02 | 58 | 1010.8 |
| 20260508001504 | 57 | 195 | 1.0 | 1.0 | 0.00 | 0.02 | 0.02 | 58 | 1011.0 |
| 20260508001001 | 57 | 295 | 0.0 | 0.0 | 0.00 | 0.02 | 0.02 | 58 | 1011.0 |
| 20260508000457 | 58 | 218 | 2.0 | 3.0 | 0.00 | 0.02 | 0.02 | 56 | 1010.9 |
| 20260507235953 | 58 | 232 | 1.0 | 1.0 | 0.00 | 0.02 | 0.02 | 56 | 1010.8 |
| 20260507235445 | 58 | 166 | 1.0 | 2.0 | 0.00 | 0.02 | 0.02 | 56 | 1010.8 |
| 20260507234942 | 58 | 132 | 1.0 | 2.0 | 0.00 | 0.02 | 0.02 | 56 | 1010.8 |
| 20260507234438 | 58 | 227 | 3.0 | 4.0 | 0.00 | 0.02 | 0.02 | 56 | 1010.7 |
| 20260507233935 | 58 | 172 | 0.0 | 1.0 | 0.00 | 0.02 | 0.02 | 57 | 1010.8 |
| 20260507233432 | 58 | 201 | 2.0 | 2.0 | 0.00 | 0.02 | 0.02 | 57 | 1010.8 |
| 20260507232930 | 57 | 168 | 1.0 | 1.0 | 0.00 | 0.02 | 0.02 | 59 | 1011.0 |
| 20260507232426 | 57 | 174 | 3.0 | 3.0 | 0.00 | 0.02 | 0.02 | 61 | 1011.0 |
| 20260507231924 | 57 | 231 | 1.0 | 2.0 | 0.00 | 0.02 | 0.02 | 64 | 1010.8 |
| 20260507231420 | 57 | 169 | 2.0 | 3.0 | 0.00 | 0.02 | 0.02 | 65 | 1010.9 |
| 20260507230916 | 56 | 187 | 3.0 | 3.0 | 0.00 | 0.02 | 0.02 | 66 | 1011.2 |
| 20260507230414 | 56 | 219 | 3.0 | 4.0 | 0.00 | 0.02 | 0.02 | 67 | 1011.2 |
| 20260507225914 | 56 | 219 | 4.0 | 4.0 | 0.00 | 0.02 | 0.02 | 67 | 1011.4 |
| 20260507225410 | 56 | 158 | 4.0 | 4.0 | 0.00 | 0.02 | 0.02 | 68 | 1011.4 |
| 20260507224907 | 55 | 168 | 4.0 | 6.0 | 0.00 | 0.02 | 0.02 | 68 | 1011.5 |
| 20260507224403 | 55 | 177 | 0.0 | 1.0 | 0.00 | 0.02 | 0.02 | 68 | 1011.4 |
| 20260507223900 | 56 | 182 | 5.0 | 6.0 | 0.00 | 0.02 | 0.02 | 65 | 1011.5 |
| 20260507223356 | 56 | 146 | 3.0 | 3.0 | 0.00 | 0.02 | 0.02 | 63 | 1011.5 |
| 20260507222853 | 55 | 236 | 1.0 | 1.0 | 0.00 | 0.02 | 0.02 | 63 | 1011.8 |
| 20260507222349 | 55 | 187 | 1.0 | 1.0 | 0.00 | 0.02 | 0.02 | 66 | 1011.6 |
| 20260507221846 | 55 | 273 | 1.0 | 1.0 | 0.00 | 0.02 | 0.02 | 70 | 1011.9 |
| 20260507221343 | 52 | 269 | 2.0 | 3.0 | 0.00 | 0.02 | 0.02 | 72 | 1012.1 |
| 20260507220838 | 51 | 303 | 4.0 | 6.0 | 0.00 | 0.02 | 0.02 | 74 | 1012.1 |
| 20260507220337 | 51 | 284 | 1.0 | 2.0 | 0.00 | 0.02 | 0.02 | 78 | 1012.7 |
| 20260507215833 | 51 | 345 | 1.0 | 1.0 | 0.00 | 0.02 | 0.02 | 80 | 1012.3 |
| 20260507215331 | 51 | 297 | 3.0 | 3.0 | 0.00 | 0.02 | 0.02 | 81 | 1012.2 |
| 20260507214828 | 51 | 326 | 2.0 | 2.0 | 0.05 | 0.02 | 0.02 | 81 | 1012.2 |
| 20260507214326 | 51 | 343 | 4.0 | 6.0 | 0.05 | 0.02 | 0.02 | 80 | 1012.2 |
| 20260507213825 | 51 | 7 | 3.0 | 3.0 | 0.07 | 0.01 | 0.01 | 79 | 1012.0 |